GFSFLT1_500_rhum_000.txt.gz
RH
34 39 45 48 40 37 35 67 94 100 98 88 68 70 70 86 85 82 73 71 60 58 53 37 18 14 16 17 18 17 16 14
46 47 56 59 49 62 73 85 96 71 57 53 43 43 64 79 74 67 61 61 61 44 26 20 20 20 19 19 19 18 17 16
40 68 74 80 71 86 72 54 57 50 49 50 54 54 60 60 66 68 62 49 30 25 26 25 24 23 22 23 22 24 24 22
81 87 91 77 80 70 64 63 68 74 61 58 62 64 66 65 60 46 31 29 31 33 34 36 36 35 38 38 29 20 18 24
98 79 81 62 45 46 79 96 71 62 55 60 67 68 58 44 38 34 34 38 47 57 55 44 36 33 25 19 15 17 20 23
78 100 76 58 73 100 98 62 60 61 64 72 66 46 45 47 49 56 63 58 43 37 32 28 26 24 19 16 19 24 31 37
65 68 66 96 99 79 58 85 84 70 64 49 48 52 53 52 47 41 39 39 35 30 26 26 24 20 19 24 35 43 42 33
47 65 57 63 57 56 72 69 64 48 38 38 44 50 49 43 38 40 40 34 30 27 29 22 22 26 32 40 47 42 40 28
39 47 42 41 46 64 62 51 42 36 40 46 49 46 44 46 45 41 36 33 34 33 26 30 36 44 50 48 41 30 18 15
27 31 33 36 36 39 46 43 41 49 50 45 50 57 57 52 47 40 39 40 34 32 34 35 42 42 47 41 28 17 13 23
20 21 22 22 25 30 33 36 45 56 56 58 63 62 58 48 46 47 46 39 38 38 36 41 48 46 36 20 12 14 22 26
25 23 22 23 25 26 33 48 57 61 61 64 65 63 55 53 53 50 46 43 38 36 44 47 40 26 15 11 14 18 21 39
27 27 26 27 30 36 44 52 58 62 70 73 66 59 58 57 54 52 47 39 40 49 48 34 23 13 10 12 19 33 66 80
30 30 30 32 37 41 43 46 63 82 79 69 65 65 62 60 59 49 42 41 48 47 31 22 13 10 15 20 20 44 61 62
33 33 34 37 41 40 45 56 70 80 76 72 70 68 68 64 52 42 43 49 46 29 22 13 10 14 27 40 48 58 60 63
35 36 38 43 43 45 42 69 82 82 80 75 77 75 65 53 42 45 50 46 31 25 13 10 12 21 35 45 53 60 57 63
40 39 42 45 45 45 65 81 88 86 85 84 79 58 49 44 48 52 50 32 25 14 11 10 14 30 40 48 57 57 51 70
45 42 45 48 54 57 81 90 89 92 92 74 52 47 48 48 50 54 37 27 15 12 10 12 16 34 48 54 61 67 70 78
47 47 53 61 57 74 84 87 94 93 71 57 55 54 56 57 59 42 29 16 13 12 12 16 34 51 55 60 71 78 80 83

GFSFLT1_500_rhum_003.txt.gz
RH
29 49 51 55 52 50 44 72 83 91 86 64 42 42 48 54 45 51 63 64 62 64 60 50 28 20 22 25 24 22 22 21
57 63 58 51 54 57 82 89 78 58 42 49 64 64 60 52 52 64 71 71 66 51 31 25 28 30 30 28 27 25 23 22
43 42 51 63 66 62 36 42 36 41 64 71 63 55 52 48 56 60 50 38 34 32 33 35 35 36 36 33 30 28 24 20
52 77 82 80 76 82 70 51 43 62 66 68 51 52 50 47 38 32 33 40 43 43 46 47 48 44 36 32 33 27 24 23
56 61 80 97 99 58 60 84 71 74 61 42 43 49 45 39 45 52 55 57 57 54 51 49 41 37 38 38 31 26 25 23
56 33 30 34 39 71 60 63 69 46 66 69 71 54 53 56 63 64 62 54 49 49 49 43 42 42 41 36 30 26 22 22
56 35 26 32 85 49 29 28 30 42 64 84 69 50 45 48 50 51 52 56 54 48 44 46 49 47 40 31 26 25 26 33
30 24 21 26 26 23 23 25 30 34 38 41 43 44 47 51 53 54 58 55 54 54 54 51 44 39 35 31 28 33 35 25
23 21 20 20 21 21 22 23 25 27 29 32 35 41 48 54 57 57 60 59 59 56 49 45 45 40 33 34 36 35 24 12
24 25 24 24 23 23 23 25 26 27 27 30 32 44 49 63 75 72 66 64 59 53 53 50 40 35 36 37 37 22 11 10
27 28 29 29 28 28 28 28 27 28 32 34 36 51 68 71 72 68 65 57 54 54 48 39 37 37 40 40 20 10 9 9
35 37 35 33 31 31 31 29 36 35 36 35 45 58 66 66 63 60 60 58 51 42 40 39 38 42 38 17 10 10 12 22
39 37 38 38 38 38 38 39 40 42 42 47 54 60 63 61 63 68 61 49 45 44 41 41 42 31 12 10 11 18 35 38
28 32 36 40 44 44 43 43 45 48 48 47 59 63 63 68 75 67 56 51 46 43 43 43 24 8 10 11 13 31 42 45
25 31 39 45 47 47 45 48 51 53 48 59 64 67 75 79 72 63 59 49 46 45 41 20 8 10 12 12 19 44 47 50
23 26 38 47 49 50 52 54 55 51 57 68 76 85 90 76 70 62 49 46 46 39 19 9 10 12 11 15 31 44 47 51
23 24 33 49 52 54 57 58 51 51 75 84 91 91 84 77 58 50 49 49 33 18 8 10 12 11 14 24 43 52 56 60
27 27 32 46 54 57 60 52 41 76 96 100 100 92 77 57 51 53 50 30 15 10 11 12 12 14 22 43 54 50 64 71
32 34 35 54 59 56 46 41 79 100 100 100 97 81 65 55 56 48 33 13 10 13 12 14 13 22 42 60 58 56 62 71

GFSFLT1_500_rhum_006.txt.gz
RH
30 30 46 50 54 49 50 56 65 62 53 47 46 41 41 54 62 54 57 61 70 72 70 61 51 40 32 27 28 28 28 29
34 50 54 43 30 33 64 73 72 63 49 42 34 40 74 69 52 50 47 42 38 34 32 32 33 34 32 30 32 36 42 39
30 33 38 49 71 72 77 96 73 42 54 64 72 81 50 37 26 27 32 34 35 39 46 51 54 57 55 56 53 47 46 44
49 70 75 79 67 70 88 73 26 23 28 34 49 27 24 40 57 51 47 50 57 63 67 69 65 64 62 54 50 50 52 48
55 56 36 31 28 27 29 25 21 23 26 21 23 29 37 53 70 69 67 60 59 61 62 66 66 61 56 56 54 51 43 41
55 44 34 23 21 20 22 23 24 21 20 20 22 27 30 33 39 45 49 56 63 66 66 61 58 57 57 50 45 42 38 36
31 23 19 19 20 20 20 20 21 20 20 21 23 25 27 30 30 33 42 51 56 60 58 60 58 53 45 39 37 37 36 33
20 19 20 21 22 23 23 24 24 24 24 25 27 30 30 27 30 35 41 48 58 62 59 54 50 46 40 42 42 40 35 34
21 23 24 27 29 29 28 28 29 29 31 33 32 28 29 34 32 36 48 52 54 52 51 55 53 53 52 49 37 33 32 32
25 26 29 33 34 34 34 34 34 36 38 39 46 41 40 37 32 44 54 52 52 58 62 58 57 57 41 31 31 30 31 16
30 34 38 38 37 38 39 41 42 44 43 45 44 45 43 37 37 56 60 63 67 66 62 63 57 36 31 31 33 23 6 8
33 36 36 33 32 33 35 42 44 47 48 47 47 46 46 41 53 64 70 76 74 70 70 53 34 32 33 32 12 5 8 11
23 23 25 25 26 26 30 40 45 49 51 50 50 53 49 46 68 78 81 78 74 76 55 34 34 36 26 4 6 8 11 12
19 21 24 23 23 23 24 31 46 53 54 53 52 48 38 60 85 87 84 82 77 56 36 34 35 18 4 8 9 10 10 13
22 23 24 25 25 25 26 30 44 58 58 55 47 38 57 84 92 89 81 70 57 38 33 35 15 5 9 11 10 10 14 24
23 24 26 27 28 30 34 38 47 59 58 50 44 60 86 91 92 82 74 60 42 37 38 18 6 10 12 12 11 13 19 34
25 26 28 30 32 34 42 50 54 58 51 52 71 90 95 95 94 82 64 48 42 42 23 8 10 13 13 13 15 19 31 43
29 31 33 33 34 44 53 55 58 54 62 83 95 98 98 97 87 70 56 44 47 31 9 11 13 14 16 16 23 27 29 40
33 35 37 41 56 59 58 56 56 74 93 100 100 99 93 88 79 70 49 51 40 12 11 13 15 17 20 25 32 34 34 50

GFSFLT1_500_rhum_009.txt.gz
RH
27 32 41 59 64 62 50 50 77 80 71 62 40 43 46 45 38 39 33 39 44 42 40 38 36 32 31 33 36 42 45 42
28 38 47 48 50 52 52 70 70 71 74 36 23 21 17 19 26 28 25 24 24 26 28 33 40 51 53 54 55 62 64 65
34 42 50 76 75 74 77 69 69 54 35 23 20 20 21 22 23 22 23 26 28 36 48 59 59 62 65 65 64 67 69 62
55 56 77 80 68 52 38 27 32 26 24 23 21 20 20 19 18 18 19 26 32 33 36 43 53 61 64 65 65 60 52 46
48 56 58 58 36 25 21 21 21 23 20 20 20 21 23 23 23 22 23 24 26 27 32 42 52 61 64 60 55 49 50 46
43 56 45 28 24 19 19 20 21 21 22 22 25 31 33 32 31 30 30 29 30 32 34 47 54 60 56 52 54 56 43 36
49 40 28 20 19 20 24 25 25 26 27 29 33 36 37 36 39 41 39 39 40 33 42 52 57 56 58 59 55 49 46 42
30 22 18 20 22 27 30 31 31 32 33 34 37 40 41 44 51 49 45 40 32 30 49 60 64 68 64 60 60 54 40 25
17 19 22 23 29 32 29 25 26 33 36 38 41 44 46 47 48 47 41 35 30 38 61 71 72 68 63 56 47 36 24 20
22 25 27 29 29 25 21 20 23 26 33 38 42 45 48 49 49 47 42 35 34 57 72 72 71 64 51 42 28 23 21 12
18 24 25 23 21 19 19 19 22 24 27 27 29 36 46 52 53 47 43 39 54 76 82 77 63 52 39 27 23 24 9 5
17 19 20 20 19 20 21 22 24 25 24 25 27 30 47 56 51 49 45 59 83 84 77 69 57 40 27 18 17 9 6 8
17 18 19 20 21 22 22 23 24 27 28 30 32 41 47 53 50 52 65 87 86 80 72 59 46 31 25 22 20 8 10 11
21 21 22 22 23 23 24 25 27 30 33 34 43 51 56 55 55 70 92 90 87 76 62 49 41 32 32 33 15 10 11 13
21 21 23 25 25 26 26 29 34 36 39 53 57 60 57 57 80 98 97 93 83 70 58 52 44 35 36 23 11 12 13 15
24 28 32 32 30 30 34 36 41 45 62 62 60 58 66 88 100 100 95 92 81 65 50 46 36 41 29 11 12 12 16 16
41 40 36 34 36 39 44 47 55 69 63 63 59 70 100 100 100 100 95 90 83 59 64 52 46 37 12 10 12 15 22 23
38 40 51 60 60 57 55 68 70 65 62 59 72 97 100 100 96 100 98 82 84 76 80 49 45 29 10 13 14 21 26 26
58 63 61 60 59 63 75 67 68 66 66 86 100 100 100 93 98 95 90 93 89 99 81 57 39 13 12 14 19 28 39 45